Wed, 20 Oct 2021 03:33:47 UTC

Information for RPM qdox-0:2.0-3.M9.module_el8.0.0+10+8b25747c.noarch.rpm

ID18359
Nameqdox
Version2.0
Release3.M9.module_el8.0.0+10+8b25747c
Epoch0
Archnoarch
SummaryExtract class/interface/method definitions from sources
DescriptionQDox is a high speed, small footprint parser for extracting class/interface/method definitions from source files complete with JavaDoc @tags. It is designed to be used by active code generators or documentation tools.
Build Time2019-07-15 21:53:13 GMT
Size304711
bd5a4248cedba305d7087958e3ab6a0c
LicenseASL 2.0
Buildrootmodule-javapackages-tools-201801-8000020190628172923-b07bea58-build-7379-1943
Provides
mvn(com.thoughtworks.qdox:qdox) = 2.0.M9
mvn(com.thoughtworks.qdox:qdox:pom:) = 2.0.M9
mvn(qdox:qdox) = 2.0.M9
mvn(qdox:qdox:pom:) = 2.0.M9
osgi(com.thoughtworks.qdox) = 1.6.3
qdox = 0:2.0-3.M9.module_el8.0.0+10+8b25747c
Obsoletes No Obsoletes
Conflicts No Conflicts
Requires
java-headless >= 1:1.5
javapackages-filesystem
rpmlib(CompressedFileNames) <= 3.0.4-1
rpmlib(FileDigests) <= 4.6.0-1
rpmlib(PayloadFilesHavePrefix) <= 4.0-1
rpmlib(PayloadIsXz) <= 5.2-1
Recommends No Recommends
Suggests No Suggests
Supplements No Supplements
Enhances No Enhances
Files
1 through 6 of 6
Name ascending sort Size
/usr/share/doc/qdox0
/usr/share/doc/qdox/LICENSE.txt589
/usr/share/doc/qdox/README.md21068
/usr/share/java/qdox.jar319109
/usr/share/maven-metadata/qdox.xml1903
/usr/share/maven-poms/qdox.pom12999
Component of
Page:
1 through 50 of 209 >>>
Buildroot descending sort Created State
dist-c8-updates-build-17359-11149 2021-02-14 14:10:15 expired
dist-c8_3-updates-build-17352-11133 2021-02-14 14:07:05 expired
dist-c8_2-updates-build-16945-9642 2020-12-06 10:54:37 expired
dist-c8-updates-build-16145-7171 2020-11-14 15:29:50 expired
module-javapackages-tools-201902-8020020200526162847-af5e9d52-build-16017-6957 2020-06-16 07:37:49 expired
module-javapackages-tools-201902-8020020200526162847-af5e9d52-build-16016-6957 2020-06-16 07:37:46 expired
module-javapackages-tools-201902-8020020200526162847-af5e9d52-build-16015-6957 2020-06-16 07:37:41 expired
module-javapackages-tools-201902-8020020200526162847-af5e9d52-build-16014-6957 2020-06-16 07:37:34 expired
module-javapackages-tools-201902-8020020200526162847-af5e9d52-build-16007-6957 2020-06-16 07:27:52 expired
module-javapackages-tools-201902-8020020200526162847-af5e9d52-build-16006-6957 2020-06-16 07:27:51 expired
module-javapackages-tools-201902-8020020200526162847-af5e9d52-build-16005-6957 2020-06-16 07:27:37 expired
module-javapackages-tools-201902-8020020200526162847-af5e9d52-build-15998-6957 2020-06-16 07:18:04 expired
module-javapackages-tools-201902-8020020200526162847-af5e9d52-build-15997-6957 2020-06-16 07:18:02 expired
module-javapackages-tools-201902-8020020200526162847-af5e9d52-build-15996-6957 2020-06-16 07:18:02 expired
module-javapackages-tools-201902-8020020200526162847-af5e9d52-build-15995-6957 2020-06-16 07:17:45 expired
module-javapackages-tools-201902-8020020200526162847-af5e9d52-build-15994-6957 2020-06-16 07:17:25 expired
module-javapackages-tools-201902-8020020200526162847-af5e9d52-build-15988-6957 2020-06-16 07:07:45 expired
module-javapackages-tools-201902-8020020200526162847-af5e9d52-build-15987-6957 2020-06-16 07:07:40 expired
module-javapackages-tools-201902-8020020200526162847-af5e9d52-build-15986-6957 2020-06-16 07:07:28 expired
module-javapackages-tools-201902-8020020200526162847-af5e9d52-build-15985-6957 2020-06-16 07:07:24 expired
module-javapackages-tools-201902-8020020200526162847-af5e9d52-build-15979-6957 2020-06-16 06:59:09 expired
module-javapackages-tools-201902-8020020200526162847-af5e9d52-build-15977-6957 2020-06-16 06:57:50 expired
module-javapackages-tools-201902-8020020200526162847-af5e9d52-build-15970-6957 2020-06-16 06:48:10 expired
module-javapackages-tools-201902-8020020200526162847-af5e9d52-build-15969-6957 2020-06-16 06:47:52 expired
module-javapackages-tools-201902-8020020200526162847-af5e9d52-build-15968-6957 2020-06-16 06:47:42 expired
module-javapackages-tools-201902-8020020200526162847-af5e9d52-build-15966-6957 2020-06-16 06:47:04 expired
module-javapackages-tools-201902-8020020200526162847-af5e9d52-build-15960-6957 2020-06-16 06:38:40 expired
module-javapackages-tools-201902-8020020200526162847-af5e9d52-build-15958-6957 2020-06-16 06:32:50 expired
module-javapackages-tools-201902-8020020200526162847-af5e9d52-build-15957-6957 2020-06-16 06:31:49 expired
module-javapackages-tools-201902-8020020200526162847-af5e9d52-build-15956-6957 2020-06-16 06:31:04 expired
module-javapackages-tools-201902-8020020200526162847-af5e9d52-build-15954-6957 2020-06-16 06:30:46 expired
module-javapackages-tools-201902-8020020200526162847-af5e9d52-build-15952-6957 2020-06-16 06:29:41 expired
module-javapackages-tools-201902-8020020200526162847-af5e9d52-build-15947-6957 2020-06-16 06:20:35 expired
module-javapackages-tools-201902-8020020200526162847-af5e9d52-build-15945-6957 2020-06-16 06:19:24 expired
module-javapackages-tools-201902-8020020200526162847-af5e9d52-build-15943-6957 2020-06-16 06:18:23 expired
module-javapackages-tools-201902-8020020200526162847-af5e9d52-build-15940-6957 2020-06-16 06:10:58 expired
module-javapackages-tools-201902-8020020200526162847-af5e9d52-build-15939-6957 2020-06-16 06:10:21 expired
module-javapackages-tools-201902-8020020200526162847-af5e9d52-build-15937-6957 2020-06-16 06:09:01 expired
module-javapackages-tools-201902-8020020200526162847-af5e9d52-build-15932-6957 2020-06-16 05:57:25 expired
module-javapackages-tools-201902-8020020200526162847-af5e9d52-build-15931-6957 2020-06-16 05:57:16 expired
module-javapackages-tools-201902-8020020200526162847-af5e9d52-build-15930-6957 2020-06-16 05:57:00 expired
module-javapackages-tools-201902-8020020200526162847-af5e9d52-build-15929-6957 2020-06-16 05:56:43 expired
module-javapackages-tools-201902-8020020200526162847-af5e9d52-build-15924-6957 2020-06-16 05:48:15 expired
module-javapackages-tools-201902-8020020200526162847-af5e9d52-build-15923-6957 2020-06-16 05:47:47 expired
module-javapackages-tools-201902-8020020200526162847-af5e9d52-build-15922-6957 2020-06-16 05:47:15 expired
module-javapackages-tools-201902-8020020200526162847-af5e9d52-build-15920-6957 2020-06-16 05:46:43 expired
module-javapackages-tools-201902-8020020200526162847-af5e9d52-build-15912-6957 2020-06-16 05:37:56 expired
module-javapackages-tools-201902-8020020200526162847-af5e9d52-build-15908-6957 2020-06-16 05:36:51 expired
module-javapackages-tools-201902-8020020200526162847-af5e9d52-build-15904-6957 2020-06-16 05:28:51 expired
module-javapackages-tools-201902-8020020200526162847-af5e9d52-build-15902-6957 2020-06-16 05:27:33 expired